Clarksburg, WV

5:03 PM EST on November 21, 2019 (GMT -0500)
Benedum

Weather History for KCKB - September, 2019

Change the Weather History Date:

Friday, September 27, 2019

  Actual Average Record
Temperature  
Mean Temperature 68 °F -  
Max Temperature 88 °F 72 °F 94 °F (1930)
Min Temperature 47 °F 49 °F 33 °F (1928)
Cooling Degree Days 3    
Month to date cooling degree days 204  
Year to date cooling degree days 1241  
Growing Degree Days 17 (Base 50)    
Moisture  
Dew Point 49 °F    
Average Humidity 60    
Maximum Humidity 93    
Minimum Humidity 27    
Precipitation  
Precipitation 0.00 in - - ()
Month to date precipitation 0.15  
Year to date precipitation 31.66  
Sea Level Pressure  
Sea Level Pressure 30.01 in    
Wind  
Wind Speed 2 mph (South)    
Max Wind Speed 15 mph    
Max Gust Speed 19 mph    
Visibility 9 miles    
Events      
Averages and records for this station are not official NWS values.
T = Trace of Precipitation, MM = Missing Value Source: NWS Daily Summary

Daily Weather History Graph

Daily Weather History Graph

Search for Another Location

Airport or City:

Astronomy

Sep. 27, 2019 Rise Set
Actual Time 7:13 AM EDT 7:10 PM EDT
Civil Twilight 6:46 AM EDT 7:36 PM EDT
Nautical Twilight 6:15 AM EDT 8:08 PM EDT
Astronomical Twilight 5:43 AM EDT 8:39 PM EDT
Moon 5:33 AM EDT (9/27) 6:59 PM EDT (9/27)
Length of Visible Light 12h 50m
Length of Day
11h 57m
Waning Crescent, 2% of the Moon is Illuminated
Sep 27
Waning Crescent
Sep 28
New
Oct 5
First Quarter
Oct 13
Full
Oct 21
Last Quarter

Hourly Weather History & Observations

Time (EDT) Temp. Dew Point Humidity Pressure Visibility Wind Dir Wind Speed Gust Speed Precip Events Conditions
12:53 AM 55.0 °F 48.0 °F 77% 30.01 in 10.0 mi Calm Calm - N/A   Clear
1:53 AM 53.1 °F 46.9 °F 80% 30.01 in 10.0 mi Calm Calm - N/A   Clear
2:53 AM 51.1 °F 46.9 °F 86% 30.01 in 10.0 mi Calm Calm - N/A   Clear
3:53 AM 50.0 °F 46.0 °F 86% 30.00 in 10.0 mi NE 3.5 mph - N/A   Clear
4:53 AM 50.0 °F 46.0 °F 86% 30.01 in 10.0 mi Calm Calm - N/A   Clear
5:53 AM 48.9 °F 46.0 °F 90% 30.02 in 10.0 mi Calm Calm - N/A   Clear
6:53 AM 48.9 °F 46.0 °F 90% 30.04 in 9.0 mi Calm Calm - N/A   Clear
7:16 AM 48.9 °F 45.0 °F 86% 30.07 in 0.8 mi Calm Calm - N/A   Clear
7:26 AM 48.9 °F 46.0 °F 90% 30.08 in 2.0 mi Calm Calm - N/A   Clear
7:36 AM 50.0 °F 46.0 °F 86% 30.08 in 9.0 mi Calm Calm - N/A   Clear
7:53 AM 51.1 °F 46.9 °F 86% 30.06 in 10.0 mi Calm Calm - N/A   Clear
8:53 AM 57.0 °F 51.1 °F 81% 30.07 in 10.0 mi Calm Calm - N/A   Clear
9:53 AM 64.0 °F 53.1 °F 67% 30.08 in 10.0 mi Calm Calm - N/A   Clear
10:53 AM 71.1 °F 52.0 °F 51% 30.07 in 10.0 mi Calm Calm - N/A   Clear
11:53 AM 78.1 °F 50.0 °F 37% 30.05 in 10.0 mi Calm Calm - N/A   Clear
12:53 PM 81.0 °F 50.0 °F 34% 30.02 in 10.0 mi Variable 3.5 mph - N/A   Clear
1:53 PM 84.9 °F 52.0 °F 32% 29.99 in 10.0 mi SW 4.6 mph - N/A   Clear
2:53 PM 86.0 °F 51.1 °F 30% 29.97 in 10.0 mi SSW 5.8 mph - N/A   Clear
3:53 PM 86.0 °F 48.9 °F 28% 29.96 in 10.0 mi West 4.6 mph - N/A   Clear
4:53 PM 86.0 °F 50.0 °F 29% 29.95 in 10.0 mi SSW 8.1 mph - N/A   Clear
5:53 PM 86.0 °F 48.0 °F 27% 29.96 in 10.0 mi South 8.1 mph - N/A   Clear
6:53 PM 82.0 °F 50.0 °F 33% 29.97 in 10.0 mi South 3.5 mph - N/A   Clear
7:53 PM 78.1 °F 52.0 °F 40% 29.96 in 10.0 mi SE 3.5 mph - N/A   Clear
8:53 PM 71.1 °F 53.1 °F 53% 29.98 in 10.0 mi Calm Calm - N/A   Clear
9:53 PM 73.0 °F 54.0 °F 51% 29.97 in 10.0 mi Calm Calm - N/A   Clear
10:53 PM 73.0 °F 55.0 °F 53% 29.96 in 10.0 mi SSE 3.5 mph - N/A   Clear
11:53 PM 69.1 °F 55.9 °F 63% 29.96 in 10.0 mi Calm Calm - N/A   Clear